Overview Statistics Trail Chart Weather Telemetry Raw packets
 

This is the latest recevied weather packets stored in our database for station/object 4S6DRJ-13. If no packets are shown the sender has not sent any weather packets the latest 10 day(s).

<< 415 416 417 418 419 420 421 >>
Time Temp. Humidity Pressure Rain* Wind** Luminosity Snow
1787831266 29.44° C 78% 1008.4 hPa 0 mm 0.89 m/s, 209° 134 W/m² -
1787831205 29.44° C 78% 1008.3 hPa 0 mm 1.34 m/s, 268° 140 W/m² -
1787831144 29.44° C 77% 1008.5 hPa 0 mm 1.34 m/s, 352° 137 W/m² -
1787831083 29.44° C 78% 1008.3 hPa 0 mm 0.89 m/s, 253° 142 W/m² -
1787831022 29.44° C 78% 1008.4 hPa 0 mm 0.45 m/s, 309° 170 W/m² -
1787830961 29.44° C 78% 1008.5 hPa 0 mm 0.89 m/s, 264° 183 W/m² -
1787830900 29.44° C 78% 1008.6 hPa 0 mm 1.34 m/s, 288° 191 W/m² -
1787830839 29.44° C 78% 1008.4 hPa 0 mm 1.34 m/s, 286° 187 W/m² -
1787830778 29.44° C 78% 1008.2 hPa 0 mm 0.89 m/s, 318° 179 W/m² -
1787830717 29.44° C 78% 1008.4 hPa 0 mm 0.89 m/s, 241° 153 W/m² -
1787830656 29.44° C 78% 1008.4 hPa 0 mm 0.45 m/s, 255° 158 W/m² -
1787830595 29.44° C 78% 1008.4 hPa 0 mm 0.89 m/s, 240° 161 W/m² -
1787830534 29.44° C 78% 1008.4 hPa 0 mm 0.89 m/s, 317° 165 W/m² -
1787830473 29.44° C 78% 1008.2 hPa 0 mm 1.79 m/s, 294° 156 W/m² -
1787830412 29.44° C 78% 1008.2 hPa 0 mm 0.89 m/s, 273° 162 W/m² -
1787830352 29.44° C 78% 1008.4 hPa 0 mm 1.79 m/s, 348° 182 W/m² -
1787830290 29.44° C 78% 1008.4 hPa 0 mm 0.89 m/s, 138° 168 W/m² -
1787830229 29.44° C 78% 1008.2 hPa 0 mm 1.34 m/s, 249° 172 W/m² -
1787830168 29.44° C 78% 1008.2 hPa 0 mm 0.89 m/s, 329° 191 W/m² -
1787830107 29.44° C 78% 1008.2 hPa 0 mm 1.34 m/s, 325° 180 W/m² -
1787830046 29.44° C 78% 1008.2 hPa 0 mm 2.24 m/s, 218° 180 W/m² -
1787829985 29.44° C 78% 1008.3 hPa 0 mm 1.79 m/s, 242° 189 W/m² -
1787829924 29.44° C 78% 1008.1 hPa 0 mm 0.89 m/s, 266° 185 W/m² -
1787829865 29.44° C 78% 1008.3 hPa 0 mm 1.34 m/s, 304° 192 W/m² -
1787829802 29.44° C 78% 1008.1 hPa 0 mm 0.89 m/s, 220° 198 W/m² -

* Rain latest hour (hover to see other rain measurements)
** Current wind speed in m/s (hover to see current wind gust speed)